User: anonymous   Login
Location: Ladysmith
(45.4630°N, 91.1040°W)
Time: 01:57:49
(UTC-05:00)
Language:

SO-67 - Orbit

View from above orbital plane
View from above orbital plane
View from above satellite
View from above satellite

Ground track
Ground track

The orbit data is extracted from the following two-line orbital elements,

1 35870U 09049F   14298.79967258  .00017795  00000-0  52177-3 0  6375
2 35870 097.1535 316.0611 0002399 052.5708 065.9663 15.35238627284071
Epoch (UTC): 25 October 2014 19:11:31
Eccentricity: 0.0002399
inclination: 97.1535°
perigee height: 458 km
apogee height: 462 km
right ascension of ascending node: 316.0611°
argument of perigee: 52.5708°
revolutions per day: 15.35238627
mean anomaly at epoch: 65.9663°
orbit number at epoch: 28407

The dashed part of the orbit path shows where the satellite is in the earth's shadow,  

DLR